Location: Sungai Jaoh
(2.9167°N, 113.9167°E)
Time: 14:54:39
(UTC+00:00)

Skynet4D Del rocket - Pass Details

Date: 30 November 2020
Orbit: 763 x 1291 km, 26.9° (Epoch: 25 January)

Event Time Altitude Azimuth Distance (km) Brightness Sun altitude
Exits shadow 19:57:39 85° 289° (WNW) 1,257 4.3 -32.4°
Maximum altitude 19:57:57 89° 212° (SSW) 1,250 4.4 -32.4°
Drops below altitude 10° 20:05:46 10° 119° (ESE) 3,071 7.5 -30.6°
Sets 20:08:27 0° 119° (ESE) 3,965 8.4 -30.0°
